TimePDT,TemperatureF,Dew PointF,Humidity,Sea Level PressureIn,VisibilityMPH,Wind Direction,Wind SpeedMPH,Gust SpeedMPH,PrecipitationIn,Events,Conditions,WindDirDegrees,DateUTC
12:53 AM,70.0,46.0,42,29.83,10.0,WSW,15.0,-,N/A,,Clear,250,2013-05-18 07:53:00
1:53 AM,69.1,46.9,45,29.83,10.0,WSW,15.0,-,N/A,,Clear,250,2013-05-18 08:53:00
2:53 AM,69.1,46.9,45,29.83,10.0,WSW,17.3,-,N/A,,Clear,250,2013-05-18 09:53:00
3:53 AM,68.0,46.9,47,29.83,10.0,West,12.7,-,N/A,,Clear,260,2013-05-18 10:53:00
4:53 AM,66.0,46.9,50,29.84,10.0,West,11.5,-,N/A,,Clear,270,2013-05-18 11:53:00
5:53 AM,66.0,48.0,52,29.86,10.0,WSW,9.2,-,N/A,,Clear,250,2013-05-18 12:53:00
6:53 AM,69.1,48.0,47,29.87,10.0,West,10.4,-,N/A,,Clear,260,2013-05-18 13:53:00
7:53 AM,73.0,48.0,41,29.89,10.0,West,11.5,-,N/A,,Clear,270,2013-05-18 14:53:00
8:53 AM,77.0,46.9,34,29.90,10.0,WNW,9.2,-,N/A,,Clear,300,2013-05-18 15:53:00
9:53 AM,80.1,46.0,30,29.90,10.0,NNW,8.1,-,N/A,,Clear,330,2013-05-18 16:53:00
10:53 AM,82.0,45.0,27,29.89,10.0,NNW,6.9,-,N/A,,Clear,330,2013-05-18 17:53:00
11:53 AM,86.0,39.2,19,29.88,10.0,Variable,5.8,-,N/A,,Clear,0,2013-05-18 18:53:00
12:53 PM,89.1,39.0,17,29.86,10.0,WNW,6.9,-,N/A,,Clear,290,2013-05-18 19:53:00
1:53 PM,89.1,37.9,16,29.85,10.0,Calm,Calm,-,N/A,,Clear,0,2013-05-18 20:53:00
2:53 PM,91.9,37.0,15,29.83,10.0,NW,4.6,-,N/A,,Clear,310,2013-05-18 21:53:00
3:53 PM,91.9,34.0,13,29.80,10.0,West,3.5,-,N/A,,Clear,270,2013-05-18 22:53:00
4:53 PM,93.0,34.0,12,29.78,10.0,Variable,3.5,-,N/A,,Clear,0,2013-05-18 23:53:00
5:53 PM,93.0,34.0,12,29.77,8.0,Calm,Calm,-,N/A,,Partly Cloudy,0,2013-05-19 00:53:00
6:53 PM,91.0,37.9,15,29.77,10.0,WSW,4.6,-,N/A,,Clear,250,2013-05-19 01:53:00
7:53 PM,82.9,50.0,32,29.79,10.0,WSW,10.4,-,N/A,,Clear,240,2013-05-19 02:53:00
8:53 PM,80.1,46.0,30,29.80,10.0,WSW,15.0,-,N/A,,Clear,250,2013-05-19 03:53:00
9:53 PM,77.0,46.0,33,29.81,10.0,WSW,10.4,-,N/A,,Clear,250,2013-05-19 04:53:00
10:53 PM,75.0,45.0,34,29.81,10.0,West,11.5,-,N/A,,Clear,260,2013-05-19 05:53:00
11:53 PM,73.0,46.0,38,29.81,10.0,West,11.5,-,N/A,,Clear,270,2013-05-19 06:53:00